Temperature
18 18 18 18 18 17 17 17 17 17 17 17 17 18 18 18 18 18 18 18 18 18 18 18 18 18 18 18 18 18 18 18 18 18 18 18 17 17 17 17 17 17 17
18 18 17 17 17 17 17 17 17 17 17 17 17 17 17 18 18 18 18 18 18 18 18 18 18 18 18 18 18 18 18 18 18 18 18 18 18 17 17 17 17 17 17
17 17 17 17 17 17 17 17 17 17 17 17 17 17 17 17 17 18 18 18 18 18 18 17 17 17 18 18 18 18 18 18 18 18 18 18 17 17 17 17 17 17 17
17 17 17 17 17 17 17 17 16 16 17 17 17 17 17 17 17 17 17 17 17 17 17 17 17 17 17 18 18 18 18 18 18 18 18 17 17 17 17 17 17 17 17
17 17 17 17 16 16 16 16 16 16 16 16 17 17 17 17 17 17 17 17 17 17 17 17 17 17 17 18 18 18 18 18 18 18 18 17 17 17 17 17 17 17 17
16 16 16 16 16 16 16 16 16 16 16 16 16 16 17 17 17 17 17 17 17 17 17 17 17 17 17 17 18 18 18 18 18 18 17 17 17 17 17 17 17 17 17
16 16 16 16 15 15 15 15 15 15 16 15 15 16 16 16 17 17 17 17 17 17 17 17 17 17 17 17 18 18 18 18 18 18 17 17 17 17 17 17 17 17 17
15 15 15 15 15 15 15 15 15 15 15 15 15 15 15 16 17 17 17 17 17 17 17 17 17 17 17 17 18 18 18 18 18 18 17 17 17 17 17 17 17 17 17
15 15 15 15 14 14 14 14 14 14 14 14 14 14 15 15 16 16 17 17 17 17 17 17 17 17 17 17 18 18 18 18 17 17 17 17 17 17 17 17 17 17 17
14 14 14 14 14 14 14 14 14 14 14 14 14 14 15 15 15 16 16 17 17 17 17 17 17 17 17 17 17 17 17 17 17 17 17 17 17 17 17 17 17 17 17
14 14 14 14 14 14 14 14 14 14 14 14 14 14 14 15 15 15 16 16 16 17 17 17 17 17 17 17 17 17 17 17 17 17 17 17 17 17 17 17 17 17 17
13 13 13 13 13 13 13 13 13 13 13 13 14 14 14 14 14 15 15 16 16 17 17 17 17 17 17 17 17 17 17 17 17 17 17 17 17 17 17 17 17 17 16
13 13 13 13 13 13 13 13 13 13 13 13 13 13 13 14 14 14 15 15 16 16 17 17 17 17 17 17 17 17 17 17 17 17 17 17 17 17 17 16 17 16 16
12 12 12 12 12 12 12 12 12 12 12 13 13 13 13 13 13 14 14 14 15 15 16 17 17 17 17 17 17 17 17 17 17 17 17 17 17 17 16 16 16 16 16
12 12 12 12 12 12 12 12 12 12 12 12 12 12 12 13 13 13 13 14 14 15 15 16 17 17 17 17 17 17 17 17 16 16 16 17 16 16 16 16 16 16 16
11 11 11 11 11 11 11 11 11 11 11 11 12 12 12 12 12 12 13 13 14 14 14 15 16 16 16 16 16 16 16 16 16 16 16 16 16 16 16 16 16 16 16
10 10 10 10 10 11 11 11 11 11 11 11 11 11 11 11 12 12 12 12 13 13 14 15 15 15 16 16 16 16 16 16 16 16 16 16 16 16 16 16 16 16 16
9 9 9 9 10 10 10 10 10 10 10 10 11 11 11 11 11 11 12 12 12 13 13 14 15 15 15 16 16 16 16 16 16 16 16 16 16 16 16 16 16 16 16
9 9 9 9 9 9 9 9 10 10 10 10 10 10 11 11 11 11 11 11 12 12 13 13 14 14 14 15 15 15 15 15 15 15 15 15 15 15 15 16 16 16 16
8 8 8 8 8 9 9 9 9 9 10 10 10 10 10 10 10 11 11 11 11 12 12 12 13 13 14 14 14 14 14 14 14 15 15 15 15 15 15 15 15 15 16
8 8 8 8 8 8 8 9 9 9 9 9 9 10 10 10 10 10 10 11 11 11 11 12 12 12 13 13 14 14 14 14 14 14 14 14 14 15 15 15 15 15 15
7 7 8 8 8 8 8 8 8 8 8 8 9 9 9 10 10 10 10 10 10 11 11 11 11 12 12 13 13 13 13 13 13 13 14 14 14 14 14 14 14 15 15
7 7 7 7 7 8 8 8 8 8 8 8 8 9 9 9 9 9 10 10 10 10 10 10 11 11 11 12 12 12 13 13 14 14 14 13 13 13 13 14 14 14 14
7 7 7 7 7 7 8 8 8 7 8 8 8 8 8 9 9 9 9 10 10 10 10 10 10 11 11 11 12 12 13 13 13 13 13 13 13 13 13 13 13 13 13
7 7 7 7 7 7 7 7 7 7 7 7 8 8 8 8 9 9 9 9 9 10 10 10 10 10 10 11 11 11 11 12 12 12 12 12 13 12 12 12 12 12 13
7 7 7 7 7 7 7 7 7 7 7 7 7 7 8 8 8 8 8 9 9 9 10 9 10 10 10 10 10 11 11 12 12 11 11 12 12 12 11 12 12 12 12
Wind_Speed
4 3 3 4 6 8 7 6 7 8 9 10 12 11 10 12 13 13 12 16 19 24 27 28 27 27 26 25 25 24 23 22 22 22 21 20 20 19 19 19 18 18 17
3 3 3 3 3 5 7 7 8 8 9 8 10 10 10 10 11 12 12 14 19 22 26 27 27 27 26 26 25 25 25 24 23 23 23 22 21 21 20 20 19 19 19
3 2 2 3 3 4 5 5 6 5 7 8 9 10 9 9 10 12 13 13 14 20 24 27 27 27 27 26 26 26 26 25 25 25 24 24 23 22 22 21 21 20 20
2 2 2 3 3 3 3 4 4 5 6 6 6 7 8 7 10 11 12 13 14 15 21 26 26 27 28 27 27 26 26 26 26 26 25 25 24 24 23 23 22 22 22
1 1 2 2 3 3 3 4 3 4 5 5 6 7 7 8 9 10 9 11 14 15 17 21 26 27 28 28 27 27 27 27 27 26 26 25 25 25 24 24 24 23 23
1 1 1 2 2 2 3 3 3 3 4 5 7 8 6 8 7 8 10 9 11 16 18 19 20 23 28 28 28 27 27 27 27 27 26 26 26 26 25 25 25 24 24
2 2 1 2 2 2 3 4 3 4 4 3 3 5 5 7 8 8 8 7 9 12 15 17 17 17 19 26 28 27 27 27 27 27 27 26 26 26 26 25 25 25 25
2 2 2 2 2 2 3 3 3 2 3 3 3 2 3 3 5 9 7 8 9 8 10 14 15 16 17 16 21 26 26 26 26 26 26 26 26 26 25 26 26 25 25
3 3 3 3 2 2 3 3 2 2 3 3 3 3 3 3 2 3 7 8 8 8 9 8 12 15 17 16 17 22 26 26 25 25 25 25 25 25 25 25 25 25 25
4 4 4 4 4 3 3 3 2 2 2 3 3 3 4 3 2 2 3 5 7 8 9 9 10 11 15 15 16 18 23 24 24 24 24 24 24 24 24 24 24 24 25
4 4 4 4 4 3 4 3 2 2 2 3 2 2 3 3 3 3 3 2 2 4 6 8 7 8 12 14 14 17 21 23 23 23 22 22 22 23 23 24 24 24 24
4 4 4 4 4 4 4 4 3 3 3 3 3 2 2 3 2 3 4 3 3 3 4 5 7 8 9 12 15 18 20 21 22 21 21 21 20 21 22 22 22 22 22
4 5 4 4 4 5 5 4 3 4 3 3 3 3 2 3 3 2 2 2 2 2 2 3 5 6 8 10 12 18 20 21 21 20 19 19 18 18 19 20 20 20 20
5 6 5 5 5 5 5 5 4 5 4 4 5 4 3 3 2 2 2 2 1 1 2 3 2 5 6 9 12 16 14 19 19 18 17 16 16 15 15 16 17 17 17
5 5 5 5 6 6 6 6 5 6 5 5 5 5 4 3 2 2 2 3 3 2 3 3 1 2 4 6 11 12 11 15 16 16 15 14 14 13 13 13 14 14 14
5 6 6 6 6 6 6 6 6 6 6 6 5 5 5 3 3 2 3 3 3 3 3 2 2 2 4 6 9 10 11 15 15 15 14 13 12 11 11 11 11 11 11
6 7 7 7 7 7 7 6 7 7 8 7 7 6 6 5 3 3 3 3 3 3 3 3 1 1 3 6 6 7 9 9 10 13 13 12 12 11 10 9 9 8 8
7 7 7 7 8 8 7 7 8 8 8 9 8 7 7 6 5 4 3 3 3 3 3 4 2 1 2 6 8 8 6 8 8 12 13 13 12 11 10 9 8 7 7
8 8 7 8 8 8 8 8 8 9 9 9 9 9 9 7 7 5 5 4 3 3 3 3 3 2 2 4 6 6 7 5 7 10 12 12 11 10 9 8 7 6 6
8 8 8 9 9 9 9 9 9 9 9 9 9 9 9 9 9 8 6 6 5 4 3 3 3 3 3 4 6 7 6 4 5 6 7 9 10 9 7 7 6 6 5
9 8 8 9 9 8 9 9 9 10 9 9 9 8 9 11 12 10 7 6 6 5 4 3 4 4 4 6 7 6 7 6 4 3 5 4 5 4 4 5 4 4 5
9 9 9 9 9 10 11 13 10 8 8 8 8 8 9 10 11 13 13 12 10 7 6 5 4 5 5 5 5 7 7 6 5 5 5 4 4 3 2 3 4 4 5
9 9 9 9 10 11 14 15 15 10 9 8 8 8 9 9 9 8 10 13 13 13 11 8 6 6 6 7 8 8 8 8 5 8 6 4 4 3 2 3 4 5 6
9 9 9 9 10 12 14 15 15 11 8 9 9 9 9 8 8 8 8 7 8 9 10 8 7 7 6 6 7 8 8 6 4 6 6 4 4 3 3 3 4 5 7
9 9 8 9 10 11 13 14 13 7 7 9 9 9 9 9 11 12 9 8 7 7 9 11 10 10 10 9 7 6 8 8 6 5 3 4 5 4 3 2 3 5 7
9 9 9 8 9 10 12 12 12 6 6 7 6 7 11 11 12 13 10 9 9 8 7 7 6 7 7 8 11 8 8 9 6 5 5 5 5 5 4 2 2 3 5
Wind_Direction
218 216 229 234 227 221 214 217 222 222 224 224 226 227 229 228 227 225 228 233 226 215 210 206 203 202 200 198 198 199 199 200 199 198 197 196 196 194 193 192 191 190 189
204 214 231 240 237 223 224 224 226 226 228 227 227 227 226 226 227 228 227 230 223 213 211 210 208 207 205 203 202 202 202 203 202 201 201 200 200 199 197 197 196 196 195
181 190 223 242 248 240 232 231 228 226 231 230 230 230 228 226 224 226 224 221 219 216 216 215 212 211 209 208 207 206 204 204 205 204 204 204 203 202 202 201 200 200 200
190 194 228 252 260 256 239 234 228 230 236 234 230 234 232 227 227 222 220 217 214 217 221 220 218 217 213 211 210 209 207 206 207 207 207 207 206 205 205 205 205 204 204
188 202 230 257 265 258 251 247 230 230 240 246 242 239 232 229 229 227 219 215 212 213 216 219 221 223 219 215 212 211 210 209 209 209 209 209 209 208 207 208 208 208 208
232 229 251 277 277 271 267 255 249 245 242 248 258 256 239 230 225 219 221 218 215 214 213 214 218 224 223 219 215 213 212 212 211 210 211 211 211 211 210 210 211 211 211
246 221 251 271 269 261 260 255 247 254 254 248 256 270 263 238 229 223 218 215 216 216 214 212 212 214 221 222 217 214 215 215 214 213 212 212 212 212 212 212 212 213 214
261 235 227 244 255 263 279 268 244 246 258 234 217 239 270 275 246 231 219 220 221 216 215 213 210 211 214 214 217 216 216 216 215 215 214 213 213 212 213 214 214 214 215
272 253 231 233 247 239 256 269 258 231 254 258 221 210 222 238 270 249 225 222 215 212 217 210 209 211 212 210 210 213 215 215 215 216 214 214 212 212 212 214 215 216 217
278 260 237 229 236 232 234 249 232 241 237 257 255 235 235 215 215 268 265 228 214 211 211 213 210 207 209 206 206 209 212 213 213 214 214 213 212 212 214 216 217 217 218
285 275 257 241 232 231 234 242 247 240 229 240 248 255 256 252 224 216 251 256 237 220 207 207 202 202 203 200 202 209 210 210 210 212 213 213 212 213 215 218 220 221 220
289 281 262 250 242 235 236 237 237 243 242 254 256 246 250 251 233 214 230 239 235 238 215 207 199 200 199 198 204 207 208 207 206 208 210 211 211 213 215 218 221 223 224
283 279 266 248 247 244 242 240 240 247 248 256 256 252 253 259 243 211 210 234 245 266 229 217 204 196 196 187 196 200 203 200 200 202 206 207 208 211 213 216 218 222 224
263 266 259 251 247 244 244 239 244 246 243 248 260 257 254 263 255 217 192 187 228 270 245 234 205 194 187 178 185 187 193 192 191 194 197 200 202 206 208 211 213 217 219
276 277 267 261 255 248 240 232 239 244 238 238 248 254 251 251 250 237 209 185 181 212 239 241 224 200 179 168 175 172 172 181 183 184 186 190 192 196 200 205 209 212 216
278 283 279 271 266 259 250 238 239 242 237 237 234 240 247 242 233 229 224 211 195 194 219 238 233 198 174 169 162 157 162 169 173 173 174 176 177 181 187 192 197 203 209
278 276 272 269 266 262 255 245 242 242 238 239 237 230 235 231 227 224 214 211 208 193 217 245 247 157 149 151 141 140 146 150 159 162 162 164 165 169 170 175 179 185 192
277 273 272 269 266 263 252 245 248 248 238 237 237 231 234 230 220 218 210 207 205 203 208 225 222 196 167 159 151 146 147 147 142 151 151 152 153 155 159 165 172 178 184
280 277 273 267 266 263 255 248 244 244 238 235 232 228 229 224 224 215 206 208 208 210 197 200 201 194 171 158 149 142 138 126 135 142 140 141 143 146 150 157 166 175 183
280 277 272 267 264 262 258 252 247 245 241 239 233 227 224 217 221 217 211 205 200 195 189 188 187 186 177 163 156 151 146 139 142 142 132 132 133 131 135 143 153 164 173
284 275 272 270 265 263 260 253 246 249 239 239 237 229 226 224 221 217 212 197 189 185 180 186 193 183 181 169 172 164 157 145 134 141 133 131 125 118 121 130 137 150 159
279 276 272 270 268 270 269 263 254 252 244 235 234 231 235 237 231 223 216 201 188 184 186 186 199 195 194 186 166 164 158 157 167 162 145 143 137 132 117 118 133 143 148
279 279 274 267 264 265 265 263 259 248 237 231 228 226 237 235 225 219 220 215 207 199 187 182 191 199 194 194 175 175 179 173 168 164 145 144 141 132 113 113 134 142 143
280 278 276 270 266 268 265 259 257 248 236 231 226 222 222 226 228 211 208 209 209 207 200 192 193 199 196 188 183 183 182 159 114 150 147 140 144 128 109 91 127 142 141
284 278 275 272 268 270 266 260 253 244 237 235 231 226 221 220 222 208 197 203 210 217 211 201 197 198 197 190 176 165 169 170 162 168 163 132 138 122 112 100 107 134 138
282 283 282 275 269 269 267 260 249 234 235 239 235 229 225 223 220 208 198 195 205 211 199 197 198 203 200 197 188 185 179 180 165 164 166 135 140 136 135 129 123 127 126
Height
1525 1525 1526 1526 1526 1526 1526 1527 1527 1528 1529 1529 1530 1531 1532 1534 1535 1536 1538 1540 1542 1544 1546 1548 1550 1552 1554 1556 1558 1560 1563 1565 1567 1569 1571 1574 1576 1578 1580 1582 1584 1586 1588
1521 1521 1522 1522 1521 1521 1522 1522 1522 1522 1523 1524 1525 1526 1527 1529 1530 1532 1533 1535 1537 1539 1541 1544 1546 1548 1550 1552 1555 1557 1560 1562 1564 1567 1569 1571 1574 1576 1578 1580 1583 1584 1586
1518 1517 1517 1517 1517 1516 1516 1516 1516 1517 1517 1518 1518 1520 1521 1523 1524 1526 1528 1530 1532 1534 1537 1539 1542 1544 1546 1548 1551 1553 1556 1558 1561 1563 1566 1569 1571 1573 1576 1578 1580 1583 1585
1514 1514 1513 1512 1512 1511 1510 1510 1510 1511 1512 1512 1512 1513 1515 1516 1518 1520 1522 1524 1526 1528 1531 1533 1536 1539 1542 1544 1546 1549 1552 1554 1557 1560 1563 1565 1568 1570 1573 1575 1578 1580 1582
1512 1511 1509 1508 1507 1506 1505 1504 1504 1505 1505 1506 1506 1507 1508 1509 1511 1513 1515 1517 1520 1522 1525 1528 1530 1533 1536 1539 1541 1544 1547 1550 1553 1556 1559 1562 1564 1567 1570 1572 1575 1577 1579
1509 1508 1506 1504 1503 1501 1500 1500 1499 1500 1500 1500 1500 1500 1501 1502 1504 1505 1507 1510 1513 1515 1519 1522 1525 1527 1531 1534 1536 1539 1542 1545 1548 1552 1555 1558 1561 1563 1566 1569 1571 1574 1576
1506 1504 1503 1501 1500 1498 1496 1495 1495 1494 1494 1495 1495 1495 1495 1496 1497 1498 1501 1503 1506 1509 1513 1516 1519 1522 1525 1528 1531 1534 1537 1540 1544 1547 1550 1553 1556 1559 1562 1565 1568 1570 1573
1503 1501 1500 1499 1497 1495 1493 1492 1491 1490 1490 1491 1491 1491 1490 1491 1490 1492 1494 1497 1500 1503 1506 1510 1513 1516 1519 1522 1525 1528 1531 1535 1538 1542 1545 1548 1552 1555 1558 1561 1563 1566 1569
1500 1498 1497 1495 1494 1492 1491 1489 1488 1487 1487 1487 1487 1488 1487 1486 1486 1487 1489 1491 1494 1497 1500 1504 1506 1509 1513 1516 1519 1523 1526 1530 1533 1537 1540 1543 1546 1550 1553 1556 1559 1562 1564
1496 1495 1493 1492 1491 1489 1488 1487 1486 1485 1484 1484 1484 1484 1485 1484 1485 1484 1485 1487 1489 1492 1495 1498 1500 1504 1507 1510 1514 1518 1522 1525 1528 1531 1535 1538 1541 1545 1548 1551 1554 1557 1559
1493 1491 1490 1488 1487 1486 1485 1484 1483 1483 1482 1481 1480 1480 1480 1480 1481 1481 1481 1483 1485 1487 1490 1493 1496 1498 1502 1505 1509 1513 1517 1520 1523 1526 1530 1533 1536 1539 1543 1546 1548 1551 1554
1489 1487 1486 1485 1484 1483 1482 1481 1480 1479 1478 1477 1477 1477 1476 1476 1477 1477 1478 1479 1480 1483 1485 1488 1491 1494 1497 1501 1504 1508 1512 1515 1519 1522 1525 1528 1531 1534 1537 1540 1543 1546 1549
1484 1483 1482 1481 1480 1478 1478 1477 1476 1476 1475 1474 1474 1473 1473 1473 1473 1474 1474 1475 1477 1479 1481 1484 1487 1490 1493 1497 1500 1504 1508 1511 1514 1517 1520 1523 1526 1529 1533 1535 1538 1541 1543
1480 1478 1477 1476 1475 1474 1473 1472 1472 1471 1471 1470 1470 1469 1469 1469 1469 1470 1471 1473 1473 1475 1477 1479 1483 1486 1489 1493 1497 1501 1504 1507 1510 1513 1516 1519 1522 1525 1528 1530 1533 1536 1538
1474 1473 1472 1470 1469 1468 1468 1467 1467 1467 1466 1466 1465 1465 1465 1465 1465 1466 1467 1469 1471 1471 1473 1476 1478 1482 1486 1489 1493 1497 1501 1503 1507 1510 1512 1515 1517 1520 1523 1526 1528 1531 1533
1468 1467 1465 1464 1463 1462 1462 1461 1461 1461 1461 1460 1460 1460 1461 1461 1462 1462 1463 1465 1467 1468 1470 1472 1475 1478 1482 1486 1490 1493 1497 1500 1503 1506 1509 1511 1514 1516 1519 1521 1524 1526 1528
1462 1460 1459 1457 1456 1456 1455 1454 1454 1454 1454 1455 1455 1455 1456 1457 1457 1458 1459 1460 1462 1464 1466 1468 1472 1475 1478 1481 1486 1490 1493 1497 1500 1503 1505 1508 1510 1512 1515 1518 1520 1522 1524
1456 1454 1452 1450 1449 1448 1448 1447 1447 1447 1447 1448 1449 1450 1451 1452 1453 1454 1455 1456 1458 1460 1463 1464 1467 1471 1474 1478 1482 1486 1490 1493 1496 1499 1502 1504 1507 1509 1511 1514 1516 1518 1520
1450 1448 1446 1444 1442 1441 1441 1440 1440 1440 1441 1441 1442 1443 1444 1446 1448 1449 1450 1452 1454 1456 1459 1461 1463 1467 1471 1474 1478 1482 1485 1489 1493 1496 1499 1501 1504 1506 1508 1511 1513 1514 1516
1443 1440 1438 1436 1435 1434 1433 1433 1433 1433 1433 1434 1435 1437 1438 1440 1442 1444 1446 1448 1450 1452 1454 1457 1459 1463 1467 1470 1474 1477 1481 1485 1489 1492 1495 1498 1501 1503 1505 1508 1509 1511 1513
1436 1434 1431 1429 1428 1427 1426 1425 1425 1426 1426 1427 1428 1430 1431 1434 1436 1439 1441 1443 1445 1447 1449 1452 1455 1458 1462 1465 1469 1473 1477 1481 1486 1489 1492 1495 1498 1500 1502 1504 1506 1508 1509
1430 1427 1425 1423 1421 1420 1419 1419 1418 1418 1419 1420 1421 1423 1425 1427 1430 1433 1435 1438 1440 1443 1445 1448 1451 1453 1456 1460 1464 1468 1472 1477 1481 1485 1488 1492 1494 1497 1500 1502 1503 1505 1506
1425 1422 1419 1417 1414 1413 1412 1411 1411 1411 1412 1413 1414 1416 1418 1420 1424 1426 1429 1432 1435 1438 1441 1443 1446 1448 1452 1456 1460 1464 1468 1473 1477 1480 1485 1488 1491 1494 1497 1499 1501 1502 1504
1419 1416 1413 1410 1408 1406 1405 1404 1404 1404 1404 1405 1407 1409 1411 1414 1417 1420 1423 1427 1430 1433 1435 1438 1441 1444 1448 1451 1455 1459 1463 1469 1474 1477 1481 1484 1487 1490 1494 1496 1498 1500 1502
1414 1411 1408 1405 1402 1400 1399 1397 1397 1397 1397 1398 1400 1402 1404 1407 1410 1414 1418 1421 1424 1427 1431 1434 1437 1440 1443 1446 1450 1455 1459 1463 1467 1471 1476 1479 1483 1487 1490 1493 1496 1498 1500
1409 1406 1403 1400 1397 1394 1393 1392 1391 1391 1391 1392 1393 1395 1398 1401 1404 1408 1411 1415 1418 1422 1426 1429 1432 1435 1438 1442 1446 1450 1453 1457 1461 1466 1470 1475 1478 1483 1487 1490 1493 1495 1498